Regional Weather Roundup
Issued by NWS

Home | Current Version | Previous Version | Text Only | Print | Product List | Glossary Off
Versions: 1 2 3 4 5 6 7 8 9 10 11 12 13 14 15 16 17 18 19 20 21 22 23 24 25 26 27 28 29 30 31 32 33 34 35 36 37 38 39 40 41 42 43 44 45 46 47 48 49 50

000
ASUS44 KMEG 302100
RWRTN
TENNESSEE HOURLY STATE WEATHER ROUNDUP
NATIONAL WEATHER SERVICE MEMPHIS TN
300 PM CST FRI JAN 30 2015

TNZ002-004-019-021-049-052-054-088>092-302200-
WEST TENNESSEE

CITY           SKY/WX    TMP DP  RH WIND       PRES   REMARKS
MEMPHIS INTL   MOSUNNY   51  21  30 N8        30.43F
NWS MEMPHIS      N/A     50 N/A N/A MISG        N/A
JACKSON        SUNNY     48  22  35 NE8       30.42F
DYERSBURG      SUNNY     45  18  33 N8        30.46S
UNION CITY     SUNNY     43  23  45 NE5       30.44S
PARIS          SUNNY     41  19  42 N8        30.43F
SAVANNAH       SUNNY     48  21  34 N7        30.41S
$$

TNZ008-025-027-028-033-062-065-066-302200-
NORTH MIDDLE TENNESSEE

CITY           SKY/WX    TMP DP  RH WIND       PRES   REMARKS
NASHVILLE      MOSUNNY   45  19  35 N9        30.43R
CLARKSVILLE    SUNNY     42  21  43 CALM      30.43F
COOKEVILLE     SUNNY     41  23  48 VRB5      30.38S
CROSSVILLE     SUNNY     38  18  44 NW13      30.34S WCI  30
$$

TNZ061-075-076-078-094-096-097-302200-
SOUTH MIDDLE TENNESSEE

CITY           SKY/WX    TMP DP  RH WIND       PRES   REMARKS
FAYETTEVILLE   SUNNY     43  18  36 MISG      30.37S
TULLAHOMA      SUNNY     43  18  36 N8        30.38S
SHELBYVILLE    SUNNY     45  23  42 N9        30.41S
$$

TNZ017-018-042-046-047-302200-
NORTHEAST TENNESSEE

CITY           SKY/WX    TMP DP  RH WIND       PRES   REMARKS
TRI CITIES     MOSUNNY   37  19  48 N12       30.29S WCI  29
ELIZABETHTON   MOCLDY    37  18  44 W10       30.27S WCI  30
$$

TNZ012-013-036-069-073-074-302200-
CENTRAL EAST TENNESSEE

CITY           SKY/WX    TMP DP  RH WIND       PRES   REMARKS
KNOXVILLE      MOSUNNY   41  19  41 NE5       30.35R
OAK RIDGE      SUNNY     45  18  34 N6        30.36S
GATLINBURG     PTCLDY    41  18  38 W7        30.34S
$$

TNZ083-085-099-302200-
SOUTHEAST TENNESSEE

CITY           SKY/WX    TMP DP  RH WIND       PRES   REMARKS
CHATTANOOGA    MOSUNNY   48  19  31 N16       30.35R
$$

SKY/WX REPORTED AS FAIR MEANS FEW OR NO CLOUDS BELOW
12 THOUSAND FEET.



USA.gov is the U.S. government's official web portal to all federal, state and local government web resources and services.